Orbital Elements at Epoch 2459000.5 (2020-May-31.0) TDB
Reference: JPL 15 (heliocentric ecliptic J2000)
Element | Value | Uncertainty (1-sigma) | Units |
e | .1001492936995024 | 4.1845e-08 | |
a | 2.288906638692708 | 1.0181e-08 | au |
q | 2.059674255483531 | 9.2926e-08 | au |
i | 7.484497584845307 | 5.2379e-06 | deg |
node | 34.76112833109482 | 3.5446e-05 | deg |
peri | 243.9115589706125 | 4.6938e-05 | deg |
M | 27.1646825966456 | 2.9248e-05 | deg |
tp | 2458905.057308243193 (2020-Feb-25.55730824) | 0.00010285 | TDB |
period | 1264.854426706734 3.46 | 8.439e-06 2.31e-08 | d yr |
n | .2846177333919144 | 1.8989e-09 | deg/d |
Q | 2.518139021901885 | 1.1201e-08 | au |
|
| | Orbit Determination Parameters
Additional Information
|